Left ArrowRight Arrow

Hourly Observations for May 8, 2024

Temp ( °F °C ) Dew Point ( °F °C ) Humidity (%) Winds ( mph kmh ) Pressure ( in mb ) Visibility ( mi km ) Precip ( " mm )
12:53 am 00:53 Mostly Cloudy 38 3.3 30 -1.1 73 73 N 18 30 29.45 997 10 16 0.00 0.00
1:53 am 01:53 Cloudy 39 3.9 27 -2.8 62 62 NNW 17 28 29.44 997 10 16 0.00 0.00
2:53 am 02:53 Cloudy 38 3.3 29 -1.7 70 70 W 9 15 29.47 998 10 16 0.00 0.00
3:53 am 03:53 Cloudy 36 2.2 30 -1.1 79 79 NW 9 15 29.50 999 10 16 0.00 0.00
4:32 am 04:32 Cloudy 36 2.2 31 -0.6 82 82 WSW 7 11 29.61 1003 10 16 0.00 0.00
4:53 am 04:53 Cloudy 35 1.7 31 -0.6 85 85 WNW 8 13 29.54 1000 10 16 0.00 0.00
5:21 am 05:21 Cloudy 34 1.1 32 0 92 92 NW 10 17 29.65 1004 10 16 0.00 0.00
5:41 am 05:41 Cloudy 34 1.1 32 0 92 92 NW 13 20 29.66 1004 10 16 0.00 0.00
5:53 am 05:53 Cloudy 34 1.1 32 0 92 92 NW 15 24 29.57 1001 10 16 0.00 0.00
6:53 am 06:53 Cloudy 35 1.7 33 0.6 92 92 NW 12 19 29.59 1002 10 16 0.00 0.00
7:53 am 07:53 Cloudy with Light Rain 36 2.2 35 1.7 96 96 NNW 9 15 29.62 1003 9 14 0.01 0.13
8:19 am 08:19 Cloudy with Light Rain 35 1.7 34 1.1 96 96 NNW 9 15 29.71 1006 5 8 0.01 0.13
8:30 am 08:30 Cloudy with Light Rain 35 1.7 34 1.1 96 96 NW 9 15 29.72 1006 6 10 0.01 0.13
8:46 am 08:46 Cloudy with Light Rain 36 2.2 35 1.7 96 96 NW 10 17 29.71 1006 10 16 0.01 0.13
8:53 am 08:53 Cloudy with Light Rain 36 2.2 35 1.7 96 96 NW 8 13 29.66 1004 10 16 0.01 0.13
9:13 am 09:13 Cloudy 39 3.9 37 2.8 93 93 N 15 24 29.68 1005 10 16 0.01 0.13
9:33 am 09:33 Cloudy with Light Rain 39 3.9 36 2.2 89 89 NNW 16 26 29.69 1006 10 16 0.01 0.13
9:53 am 09:53 Cloudy with Light Rain 39 3.9 35 1.7 86 86 NNW 20 31 29.66 1004 9 14 0.01 0.25
10:53 am 10:53 Cloudy with Light Rain 42 5.6 37 2.8 82 82 NNW 21 33 29.67 1005 10 16 0.01 0.13
11:53 am 11:53 Mostly Cloudy 44 6.7 37 2.8 76 76 NNW 26 43 29.72 1006 10 16 0.01 0.13
12:50 pm 12:50 Cloudy 46 8 37 3 71 71 NNW 28 44 29.70 1006 10 16 0.01 0.13
12:53 pm 12:53 Cloudy 46 7.8 37 2.8 71 71 NNW 26 43 29.73 1007 10 16 0.01 0.13
1:15 pm 13:15 Cloudy with Light Rain 45 7.2 38 3.3 76 76 NNW 26 43 29.72 1006 9 14 0.01 0.13
1:31 pm 13:31 Cloudy 46 7.8 38 3.3 73 73 NNW 33 54 29.72 1006 10 16 0.01 0.13
1:53 pm 13:53 Cloudy 45 7.2 38 3.3 76 76 NNW 24 39 29.77 1008 10 16 0.01 0.13
2:34 pm 14:34 Cloudy 45 7.2 38 3.3 76 76 NW 28 44 29.76 1008 10 16 0.01 0.13
2:53 pm 14:53 Cloudy with Haze 46 7.8 39 3.9 76 76 NW 26 43 29.80 1009 6 10 0.01 0.13
3:09 pm 15:09 Cloudy 46 7.8 39 3.9 76 76 NNW 28 44 29.76 1008 10 16 0.00 0.00
3:24 pm 15:24 Cloudy 47 8.3 39 3.9 74 74 NW 25 41 29.76 1008 10 16 0.00 0.00
3:48 pm 15:48 Cloudy 45 7 37 3 76 76 NNW 25 41 29.80 1009 8 13 0.00 0.00
3:53 pm 15:53 Cloudy with Light Rain 45 7.2 38 3.3 76 76 NNW 26 43 29.83 1010 8 13 0.01 0.13
4:53 pm 16:53 Cloudy 44 6.7 39 3.9 82 82 NNW 25 41 29.86 1011 10 16 0.01 0.13
5:24 pm 17:24 Mostly Cloudy with Light Rain 44 6.7 39 3.9 82 82 NW 28 44 29.84 1011 9 14 0.01 0.13
6:00 pm 18:00 Cloudy with Light Rain 42 5.6 40 4.4 92 92 NNW 28 44 29.88 1012 3 4 0.01 0.25
6:13 pm 18:13 Cloudy with Light Rain 42 5.6 40 4.4 92 92 NNW 23 37 29.89 1012 5 8 0.01 0.25
6:53 pm 18:53 Cloudy 43 6.1 40 4.4 89 89 NNW 21 33 29.92 1013 9 14 0.01 0.25
7:53 pm 19:53 Cloudy with Light Rain 42 5.6 40 4.4 92 92 NNW 25 41 29.95 1014 7 11 0.01 0.25
8:03 pm 20:03 Cloudy with Light Rain 42 5.6 40 4.4 92 92 NNW 23 37 29.94 1014 2 3 0.01 0.13
8:11 pm 20:11 Cloudy with Light Rain 42 5.6 41 5 96 96 NNW 25 41 29.94 1014 3 5 0.01 0.25
8:53 pm 20:53 Cloudy 41 5 40 4.4 96 96 NNW 21 33 29.99 1016 10 16 0.01 0.25
9:15 pm 21:15 Cloudy with Light Rain 42 5.6 40 4.4 92 92 NNW 17 28 29.99 1016 6 10 0.01 0.13
9:53 pm 21:53 Cloudy with Light Rain 41 5 40 4.4 96 96 NNW 22 35 30.03 1017 10 16 0.01 0.13
10:21 pm 22:21 Cloudy 41 5 40 4.4 96 96 NNW 14 22 30.03 1017 10 16 0.01 0.13
10:50 pm 22:50 Cloudy with Heavy Rain 41 5 41 5 100 100 N 12 19 30.05 1018 2 3 0.04 1.02
10:57 pm 22:57 Cloudy with Light Rain 41 5 41 5 100 100 N 17 28 30.06 1018 3 4 0.01 0.13
11:00 pm 23:00 Cloudy with Light Rain 41 5 41 5 100 100 N 16 26 30.06 1018 3 5 0.01 0.25
11:12 pm 23:12 Cloudy with Light Rain 41 5 40 4.4 96 96 N 15 24 30.06 1018 6 10 0.01 0.25
11:41 pm 23:41 Cloudy with Light Rain 40 4.4 39 3.9 97 97 NNW 13 20 30.08 1019 10 16 0.02 0.51
11:53 pm 23:53 Cloudy with Light Rain 40 4.4 39 3.9 97 97 NNW 17 28 30.07 1018 9 14 0.02 0.51

Powered by Vaisala Xweather